Wind_Speed
19 17 14 8 4 6 2 2 3 3 6 10 9 15 15 15 19 14 13 17 13 15 17 15 13 12 13 16 18 18 20 18 18 18 21 19 17 17 21 22 20 20 19 21 18 17 15 14 16
19 20 14 10 16 9 4 1 3 3 6 9 11 12 14 15 14 14 17 18 17 17 17 16 13 12 13 15 16 16 16 17 17 17 19 20 17 17 18 19 20 18 16 18 16 15 15 15 15
18 21 11 22 12 9 4 1 3 5 7 10 11 11 11 13 14 16 20 18 18 18 18 17 15 15 19 17 19 16 15 14 15 17 17 20 18 16 17 17 19 17 16 15 15 15 15 16 14
15 15 20 13 16 14 11 6 8 10 12 9 13 6 8 9 17 20 21 20 19 19 18 16 17 19 19 17 18 16 14 14 14 16 17 18 20 18 15 15 16 17 15 14 15 15 15 15 14
14 20 14 14 14 15 14 10 4 10 12 12 12 6 7 6 7 14 23 19 20 20 19 18 17 16 15 13 18 17 14 13 13 15 17 17 19 20 17 16 13 16 15 14 15 15 14 14 14
19 15 10 12 13 15 15 13 9 8 10 11 9 8 5 7 6 15 22 23 21 19 18 18 17 14 13 12 17 16 13 13 12 13 14 16 18 18 17 18 17 14 15 15 14 15 14 13 13
22 7 7 9 12 13 15 15 15 7 1 3 7 8 5 8 13 19 25 29 27 22 19 16 15 14 12 10 12 15 11 12 11 11 13 13 14 14 15 13 14 15 13 13 14 14 14 13 11
12 9 8 8 10 10 14 15 17 19 14 7 6 10 7 7 15 22 23 25 24 25 20 15 14 13 11 11 8 11 9 7 7 7 9 13 10 10 13 12 12 12 14 13 10 10 12 12 12
13 5 5 6 7 10 9 13 14 16 18 16 13 12 9 7 8 15 21 24 26 24 19 15 13 12 11 9 8 6 7 5 5 6 8 12 8 7 8 10 12 11 12 12 11 10 10 11 10
12 8 4 5 6 6 7 9 10 12 18 19 17 15 13 10 9 6 13 23 26 20 18 15 13 12 9 9 9 7 5 7 8 7 8 6 7 7 5 7 8 9 9 9 10 11 9 8 9
3 6 5 4 5 6 6 7 8 8 14 17 18 16 17 19 9 4 13 30 26 25 21 11 8 7 6 6 6 7 6 4 4 5 4 7 7 5 2 4 5 6 7 7 7 10 10 6 5
7 6 5 5 4 5 7 8 7 7 9 10 11 13 13 15 17 18 16 20 25 25 14 8 7 7 5 5 5 6 5 3 4 2 3 4 3 3 2 4 4 3 3 5 5 4 4 5 4
5 8 6 6 7 8 7 6 5 7 8 7 7 8 9 9 9 11 11 17 12 14 9 4 8 7 4 6 5 6 5 4 2 2 2 0 3 2 2 1 5 4 4 3 3 2 3 2 3
7 8 7 8 9 9 10 8 6 7 7 5 5 4 6 4 3 4 5 4 4 7 6 8 7 6 2 5 4 4 3 2 4 2 3 1 3 1 2 3 5 3 4 3 3 3 4 3 1
8 8 8 8 9 10 10 10 9 9 8 7 6 4 3 3 2 1 1 2 3 6 6 7 10 6 2 1 3 4 3 3 2 1 3 2 4 5 3 4 4 3 3 2 3 4 6 6 7
4 7 8 7 8 9 7 13 13 12 9 8 9 7 5 2 1 1 2 1 2 5 6 6 7 6 5 6 7 6 7 6 6 4 2 3 6 10 12 7 4 1 4 2 3 7 7 8 8
5 19 4 3 3 6 13 6 13 12 10 10 10 8 6 4 3 2 2 3 4 4 5 6 5 6 7 8 10 10 10 9 7 5 7 6 6 5 5 6 5 2 2 4 6 6 6 7 8
5 2 2 5 7 4 9 11 8 8 8 7 7 7 6 4 2 2 3 4 4 4 4 5 5 6 8 10 12 12 13 9 7 6 7 7 8 8 7 3 3 0 4 6 7 5 5 8 8
7 5 5 9 11 5 3 2 6 7 7 5 4 3 6 5 3 2 3 3 4 4 4 4 5 5 6 7 10 12 13 10 6 5 6 10 9 7 7 3 1 3 6 6 6 5 7 6 6
13 6 8 14 11 9 8 6 4 5 8 10 10 6 6 7 5 3 4 4 3 4 3 4 6 6 4 7 9 9 11 11 5 4 5 3 4 14 6 2 3 4 6 7 3 2 6 8 6
11 10 6 11 13 11 5 5 4 5 7 10 11 11 8 8 8 8 7 7 8 7 4 2 4 5 5 6 7 7 9 9 7 6 7 5 5 5 6 5 5 6 11 12 8 5 4 6 4
9 15 24 15 8 12 10 18 8 9 5 7 9 9 8 7 7 6 6 6 7 7 7 4 4 5 5 4 4 4 7 7 7 7 6 3 2 2 3 4 5 5 10 4 9 8 6 5 4
17 20 16 15 11 8 12 3 15 12 6 4 7 8 11 6 5 5 6 8 7 7 6 8 4 5 6 5 5 3 5 6 7 8 6 6 4 1 2 2 5 6 8 7 6 7 5 3 2
21 23 21 12 9 9 12 13 25 12 8 8 8 8 9 9 3 6 7 7 6 9 7 7 5 4 6 6 4 4 2 4 5 7 4 7 6 7 4 3 7 8 6 4 3 4 2 1 2
32 23 12 12 11 11 15 17 21 10 1 7 15 9 9 9 5 6 5 5 4 7 8 10 7 6 5 6 7 5 5 4 3 4 13 13 9 8 7 8 5 2 3 2 1 0 1 2 4
30 25 18 15 13 14 18 16 13 4 7 13 15 16 11 13 4 3 7 5 1 3 6 8 8 5 4 3 4 7 6 6 5 5 11 12 7 8 9 9 13 7 3 2 2 2 3 4 5
26 29 24 22 22 20 15 5 16 12 9 11 19 19 15 15 14 11 11 6 5 3 3 3 4 5 6 5 5 5 6 8 8 7 8 8 10 17 16 11 8 8 6 5 4 3 5 7 9
37 20 27 27 27 24 19 20 15 14 12 10 12 18 19 14 13 11 13 12 6 6 4 7 8 7 9 10 13 10 9 7 9 11 11 8 10 14 5 7 8 9 8 9 9 5 6 6 5
38 39 28 25 27 25 22 14 17 20 21 11 14 23 26 14 9 9 13 14 8 9 9 7 7 10 11 14 13 9 11 11 10 10 13 13 14 15 11 14 11 11 11 11 9 6 8 6 7
29 29 34 27 28 28 26 26 16 10 11 15 16 24 27 17 12 14 13 12 6 7 9 8 10 13 13 18 17 11 12 10 13 10 13 15 17 15 13 14 16 13 11 10 9 11 10 11 11
Wind_Direction
66 68 73 84 64 52 85 139 154 177 197 176 178 171 169 156 164 163 155 163 136 128 124 114 98 106 102 102 88 80 77 70 67 71 77 73 78 76 74 72 76 82 84 82 80 82 87 95 105
64 63 58 76 47 31 10 266 197 150 170 186 174 166 165 164 169 157 146 147 146 135 128 118 114 110 108 108 92 84 76 75 68 68 74 77 76 83 77 76 75 84 92 85 84 92 94 98 101
69 64 39 62 42 29 26 218 196 161 148 166 176 167 179 186 177 162 150 151 146 139 131 122 118 114 111 109 100 88 80 72 70 71 73 75 77 90 84 78 81 83 91 98 94 90 101 104 105
75 72 57 56 47 49 62 107 140 144 145 162 176 173 193 210 194 175 155 151 148 140 129 124 117 115 108 103 94 93 83 78 71 72 76 80 78 90 87 83 85 85 88 99 97 89 96 107 105
79 68 60 52 50 55 67 81 118 143 168 178 181 204 191 211 239 245 166 146 144 134 128 124 116 117 106 101 102 100 91 84 82 74 77 76 77 86 83 86 86 93 89 97 98 98 97 105 106
75 67 35 48 49 54 56 67 83 139 179 189 191 192 187 210 236 191 155 146 140 130 129 131 128 122 113 106 108 105 102 93 94 89 83 76 74 77 89 81 93 90 93 90 98 97 99 104 115
76 121 72 60 62 64 63 49 69 86 151 211 222 204 205 209 210 189 174 167 151 135 135 140 134 132 126 113 110 103 103 103 97 97 95 84 80 81 85 92 90 93 90 97 95 100 111 112 120
104 83 80 75 74 76 66 63 69 80 70 67 150 140 135 166 200 186 171 156 149 137 138 141 139 133 128 128 111 106 105 105 109 104 99 90 56 76 85 83 84 107 94 99 102 94 106 120 118
85 87 111 119 100 89 69 62 61 63 66 67 90 89 102 153 186 178 173 159 141 138 136 139 134 133 136 136 120 112 104 93 112 122 119 115 99 69 89 90 89 97 103 95 102 104 107 117 129
91 168 116 111 117 106 84 67 63 65 67 68 80 88 88 98 121 151 192 177 144 146 150 144 150 149 151 133 144 137 120 103 98 105 124 129 133 120 113 103 96 100 96 102 97 112 110 100 124
97 120 141 139 117 105 102 87 76 68 76 78 83 83 74 70 105 110 180 160 158 157 154 144 143 141 148 152 143 138 122 133 118 104 99 132 123 121 136 135 117 108 102 90 99 113 104 101 110
59 91 121 131 116 115 98 94 98 93 79 80 86 88 74 62 60 55 58 180 163 153 134 115 104 120 111 125 117 108 127 112 108 33 168 107 121 120 130 153 173 151 121 114 102 116 86 95 117
94 84 93 114 115 101 102 99 95 95 94 89 90 89 85 68 43 39 46 40 135 127 129 145 93 110 85 82 110 114 119 131 163 140 162 84 136 104 131 85 167 165 183 162 163 146 142 109 108
113 104 97 96 97 95 96 90 81 78 81 91 92 97 93 83 58 23 25 73 106 107 107 97 132 145 84 48 40 52 81 152 175 195 245 200 56 8 144 126 138 159 169 204 204 219 202 182 200
118 99 90 85 89 92 95 77 65 61 61 71 73 87 103 113 98 90 147 172 163 164 176 192 197 208 182 237 332 351 341 329 360 218 246 251 295 295 197 154 122 140 140 165 214 228 247 241 236
110 110 39 66 77 85 76 70 81 74 67 58 63 59 60 70 110 218 262 238 216 211 208 199 215 226 234 261 285 303 309 304 288 303 271 245 261 303 198 152 136 92 135 39 269 238 239 246 254
204 134 241 65 45 85 101 91 89 86 79 70 71 68 57 38 21 357 315 274 258 240 231 224 231 252 259 267 276 284 289 293 291 298 298 285 255 284 218 153 120 106 289 298 284 270 252 247 245
154 243 176 260 298 144 112 120 83 71 64 77 67 75 79 65 33 340 308 292 271 268 269 267 264 264 269 275 276 282 278 284 284 287 293 279 267 252 152 141 134 213 298 301 285 246 245 249 254
208 205 213 248 237 192 194 123 40 37 43 65 100 86 68 68 80 50 1 319 300 297 293 286 298 300 281 276 279 277 271 265 263 282 288 289 290 180 189 185 206 313 317 308 289 242 208 235 240
217 208 257 245 224 209 220 222 271 29 28 40 56 56 50 52 58 56 26 0 313 300 316 327 332 346 324 288 277 272 266 256 238 241 241 15 165 160 131 103 66 43 7 355 357 224 212 200 216
216 193 221 211 248 238 256 248 300 317 48 56 54 59 50 49 50 43 36 16 354 329 319 319 331 344 336 313 280 269 251 231 223 215 217 232 53 73 82 76 75 69 51 27 55 90 162 169 193
193 222 236 237 245 265 229 289 10 291 26 43 37 46 45 33 40 42 43 43 20 350 320 320 343 321 304 314 286 234 199 196 220 204 205 141 11 31 68 78 85 89 98 114 88 103 139 173 189
199 243 237 239 235 282 298 254 243 272 291 332 15 39 40 33 10 28 34 35 16 353 335 320 336 311 309 305 305 239 190 179 196 203 200 210 213 269 76 85 101 96 94 95 113 121 140 162 164
213 238 226 227 246 252 261 255 302 205 256 292 341 14 25 28 16 48 38 19 19 11 350 319 329 319 316 299 313 311 242 176 204 206 186 202 238 249 278 242 116 100 89 109 128 129 129 7 355
219 221 225 239 234 250 209 240 262 207 235 247 309 341 352 358 7 9 15 6 46 38 7 348 334 336 327 324 312 321 323 297 242 212 232 233 208 225 233 248 204 160 215 136 105 114 29 350 333
224 220 214 218 221 244 241 259 252 91 262 283 294 305 321 331 337 356 349 350 186 32 9 354 342 327 321 328 334 305 286 297 300 269 260 254 217 222 231 241 226 181 207 213 230 310 331 336 339
218 231 218 225 231 228 261 251 258 284 266 306 295 279 290 314 306 321 329 315 240 250 10 26 341 299 294 288 268 282 261 247 251 253 250 257 239 229 224 208 234 220 213 258 282 306 328 340 323
220 218 228 220 234 235 237 249 243 245 248 263 271 272 276 301 288 309 323 329 285 256 246 280 309 314 286 299 317 270 271 254 242 246 242 233 237 281 304 211 227 221 236 253 270 295 327 323 331
228 218 217 219 232 226 241 246 252 228 248 253 267 271 274 281 284 314 322 322 312 276 262 295 323 324 316 302 292 286 275 278 259 240 238 224 225 230 225 228 225 228 236 255 277 288 286 268 297
227 231 228 227 221 224 237 226 228 241 256 258 247 261 269 271 274 283 307 317 300 285 279 300 312 323 341 344 258 252 268 279 281 262 236 228 220 219 221 225 225 230 245 265 274 268 284 281 292
Height
5894 5894 5894 5894 5898 5896 5896 5897 5897 5896 5896 5898 5898 5899 5899 5901 5901 5905 5903 5904 5906 5906 5907 5907 5909 5909 5908 5908 5907 5906 5905 5905 5905 5904 5902 5901 5900 5900 5900 5899 5899 5899 5899 5898 5899 5899 5900 5902 5903
5896 5896 5897 5896 5897 5898 5898 5897 5898 5898 5898 5899 5900 5900 5901 5902 5902 5903 5905 5906 5906 5907 5908 5909 5911 5910 5910 5910 5909 5909 5908 5907 5908 5908 5906 5904 5904 5903 5902 5902 5902 5902 5901 5901 5902 5902 5903 5905 5906
5900 5898 5900 5899 5901 5899 5899 5898 5899 5900 5899 5901 5902 5902 5902 5902 5903 5904 5904 5906 5906 5907 5908 5909 5911 5912 5911 5911 5910 5911 5911 5910 5910 5909 5909 5907 5906 5905 5906 5905 5906 5906 5904 5905 5906 5905 5906 5908 5909
5903 5903 5901 5904 5903 5902 5900 5900 5900 5901 5902 5903 5902 5903 5903 5903 5902 5903 5904 5905 5907 5908 5909 5911 5911 5913 5913 5913 5912 5913 5914 5913 5912 5912 5912 5911 5909 5908 5909 5909 5909 5909 5908 5908 5909 5908 5909 5910 5912
5906 5903 5908 5908 5907 5905 5904 5902 5902 5902 5903 5904 5903 5904 5904 5904 5904 5903 5902 5906 5909 5910 5911 5912 5914 5915 5915 5916 5913 5916 5916 5916 5915 5915 5915 5914 5913 5911 5912 5911 5911 5911 5911 5911 5911 5912 5912 5913 5915
5906 5914 5914 5911 5910 5909 5907 5906 5904 5904 5904 5904 5904 5905 5905 5904 5904 5905 5905 5908 5911 5913 5913 5914 5914 5916 5917 5918 5916 5918 5919 5918 5918 5918 5917 5917 5916 5915 5915 5915 5914 5914 5914 5914 5914 5915 5915 5916 5917
5909 5921 5916 5915 5914 5913 5911 5910 5907 5907 5907 5907 5906 5905 5906 5905 5904 5905 5905 5905 5909 5911 5915 5916 5917 5919 5920 5921 5920 5920 5922 5921 5921 5920 5920 5919 5918 5918 5918 5918 5917 5916 5916 5917 5918 5918 5919 5920 5920
5917 5922 5918 5917 5916 5916 5914 5914 5912 5910 5910 5908 5906 5906 5906 5905 5905 5907 5909 5910 5911 5912 5915 5918 5920 5920 5922 5922 5922 5923 5924 5925 5924 5923 5922 5921 5921 5921 5920 5920 5919 5919 5918 5919 5920 5920 5921 5922 5923
5920 5926 5920 5918 5918 5918 5917 5916 5916 5916 5914 5911 5910 5909 5908 5907 5908 5911 5912 5913 5915 5916 5918 5920 5921 5921 5923 5923 5924 5924 5924 5925 5926 5925 5924 5924 5922 5924 5922 5923 5922 5922 5921 5921 5922 5922 5923 5923 5924
5925 5924 5920 5920 5919 5920 5919 5918 5919 5920 5917 5915 5913 5914 5914 5913 5913 5913 5915 5915 5916 5918 5920 5922 5923 5924 5925 5924 5926 5926 5927 5927 5927 5926 5925 5925 5925 5925 5925 5925 5925 5924 5924 5924 5925 5924 5925 5926 5926
5924 5922 5921 5921 5921 5920 5921 5920 5921 5921 5920 5919 5918 5917 5918 5917 5916 5915 5913 5913 5918 5920 5921 5924 5926 5926 5927 5927 5927 5927 5927 5928 5928 5927 5927 5926 5927 5926 5926 5926 5926 5927 5926 5927 5927 5928 5928 5928 5929
5925 5923 5922 5923 5922 5922 5922 5922 5923 5924 5923 5923 5921 5920 5920 5920 5920 5920 5917 5918 5919 5920 5925 5927 5928 5928 5929 5929 5929 5929 5929 5929 5928 5928 5928 5927 5928 5927 5927 5927 5928 5928 5929 5929 5930 5930 5930 5930 5931
5928 5925 5925 5925 5924 5924 5923 5923 5924 5925 5925 5925 5924 5923 5922 5922 5922 5923 5923 5923 5924 5924 5926 5928 5929 5930 5931 5931 5931 5931 5930 5930 5930 5929 5929 5929 5928 5928 5928 5928 5928 5929 5930 5930 5931 5932 5933 5932 5932
5930 5927 5926 5926 5926 5926 5926 5926 5925 5926 5926 5926 5925 5925 5924 5924 5925 5925 5925 5926 5927 5928 5929 5929 5931 5932 5932 5932 5932 5932 5931 5931 5930 5930 5930 5929 5930 5930 5929 5929 5929 5930 5931 5932 5932 5933 5933 5933 5933
5929 5928 5927 5927 5927 5928 5927 5928 5927 5927 5928 5927 5926 5926 5925 5925 5925 5926 5926 5927 5927 5928 5929 5930 5931 5932 5932 5932 5932 5933 5932 5931 5931 5931 5930 5930 5930 5930 5930 5930 5930 5931 5932 5933 5933 5933 5932 5933 5933
5929 5928 5928 5929 5928 5928 5930 5929 5930 5929 5929 5928 5927 5927 5927 5926 5926 5926 5927 5927 5928 5928 5929 5929 5931 5932 5932 5932 5931 5932 5932 5932 5931 5930 5931 5932 5930 5930 5929 5931 5931 5933 5932 5932 5933 5933 5933 5933 5934
5932 5916 5932 5931 5931 5930 5931 5935 5932 5931 5930 5929 5928 5928 5928 5928 5927 5927 5927 5928 5928 5928 5929 5929 5929 5931 5932 5932 5931 5931 5931 5931 5930 5931 5930 5930 5931 5931 5931 5932 5932 5933 5932 5932 5933 5933 5933 5934 5935
5935 5939 5935 5929 5934 5932 5932 5934 5934 5932 5932 5931 5930 5930 5929 5928 5928 5928 5928 5928 5929 5928 5928 5928 5928 5929 5929 5929 5930 5930 5930 5929 5930 5930 5930 5930 5930 5930 5931 5933 5932 5933 5932 5932 5931 5931 5931 5932 5933
5938 5938 5938 5936 5934 5933 5932 5933 5934 5933 5933 5931 5931 5930 5930 5929 5929 5928 5928 5928 5929 5928 5928 5927 5927 5927 5927 5927 5928 5928 5928 5929 5929 5930 5930 5930 5929 5931 5933 5933 5932 5931 5931 5931 5930 5928 5929 5931 5932
5934 5938 5939 5936 5933 5933 5934 5934 5934 5933 5933 5932 5932 5932 5932 5930 5929 5929 5928 5928 5928 5929 5928 5927 5926 5926 5926 5926 5926 5926 5926 5926 5929 5930 5931 5932 5929 5931 5932 5933 5932 5931 5930 5929 5928 5927 5929 5930 5931
5934 5939 5933 5937 5932 5931 5932 5934 5935 5933 5932 5932 5932 5932 5932 5931 5930 5930 5929 5928 5928 5928 5928 5927 5926 5925 5924 5924 5925 5925 5924 5925 5927 5929 5932 5934 5933 5933 5933 5933 5932 5932 5932 5930 5928 5928 5929 5931 5932
5937 5935 5933 5933 5932 5932 5933 5928 5925 5933 5930 5931 5931 5932 5931 5931 5930 5930 5929 5929 5928 5927 5926 5926 5926 5925 5924 5923 5923 5923 5923 5924 5926 5928 5931 5933 5933 5933 5933 5933 5933 5932 5931 5929 5930 5929 5931 5932 5931
5933 5928 5930 5931 5931 5933 5935 5936 5930 5933 5929 5929 5930 5931 5931 5930 5930 5930 5930 5929 5928 5926 5925 5924 5924 5924 5924 5924 5923 5923 5923 5923 5925 5927 5930 5931 5932 5932 5932 5933 5933 5932 5932 5931 5931 5931 5931 5931 5931
5925 5927 5928 5930 5932 5935 5935 5935 5924 5929 5929 5927 5929 5931 5931 5930 5929 5929 5929 5928 5927 5926 5924 5924 5923 5924 5924 5925 5924 5924 5923 5922 5924 5927 5930 5930 5932 5932 5931 5932 5932 5932 5932 5933 5932 5931 5931 5932 5932
5919 5923 5929 5933 5935 5935 5930 5932 5930 5917 5931 5929 5926 5930 5931 5930 5929 5930 5929 5928 5926 5925 5924 5923 5924 5924 5924 5925 5925 5925 5924 5923 5924 5929 5924 5923 5926 5929 5931 5931 5932 5932 5933 5932 5932 5932 5932 5933 5933
5916 5921 5928 5932 5934 5935 5931 5929 5930 5907 5929 5928 5927 5928 5930 5930 5929 5930 5929 5927 5925 5925 5924 5924 5924 5924 5924 5923 5923 5924 5923 5924 5924 5927 5923 5924 5931 5932 5931 5933 5931 5929 5931 5931 5932 5933 5933 5932 5932
5913 5915 5923 5927 5927 5930 5921 5928 5929 5930 5930 5928 5926 5928 5929 5929 5929 5928 5927 5926 5925 5923 5924 5924 5924 5923 5922 5922 5922 5921 5921 5921 5921 5923 5925 5929 5930 5917 5917 5926 5930 5930 5929 5929 5931 5932 5933 5932 5932
5904 5916 5918 5920 5923 5924 5927 5928 5932 5928 5929 5928 5929 5924 5926 5928 5927 5926 5925 5924 5923 5923 5923 5923 5922 5922 5921 5921 5920 5920 5920 5919 5919 5920 5921 5926 5926 5918 5912 5926 5928 5929 5928 5928 5930 5931 5932 5932 5931
5899 5903 5908 5917 5921 5922 5925 5926 5928 5924 5923 5926 5925 5923 5924 5926 5926 5925 5924 5923 5922 5922 5921 5921 5920 5920 5919 5918 5917 5917 5918 5918 5918 5918 5919 5923 5922 5925 5925 5928 5928 5925 5926 5928 5930 5931 5931 5930 5930
5892 5898 5903 5909 5914 5917 5919 5925 5918 5922 5921 5921 5922 5919 5921 5925 5925 5923 5923 5921 5921 5920 5919 5919 5918 5918 5914 5912 5912 5913 5915 5915 5916 5916 5916 5917 5922 5923 5925 5926 5924 5921 5925 5927 5929 5930 5930 5931 5927